Home > Weather > Geretsried > Past weeks

Flag for Germany Past Weather in Geretsried, Bavaria, Germany — Yesterday and Last 2 Weeks

Now
57 °F

Cool.


Feels Like: 57 °F
Forecast: 50 / 77 °F
Wind: 2 mph from North

Location: Altenstadt Airport

Current Time: May 26, 2016 at 9:02:59 AM

Latest Report: May 26, 2016 at 8:20 AM


Visibility: N/A

Pressure: 30.04 "Hg (27.94 "Hg at 609m altitude)

Humidity: 82%

Dew Point: 52 °F

Location of GeretsriedLocation

Past Weather in Geretsried — Graph

°F

Geretsried Temperature Yesterday

Maximum temperature yesterday: 64 °F (at 4:20 PM)
Minimum temperature yesterday: 45 °F (at 3:20 AM)
Average temperature yesterday: 53 °F

High & Low Weather Summary for the Past Weeks

 TemperatureHumidityPressure
High79 °F (May 22, 2:20 PM)100% (May 12, 12:20 AM)30.18 "Hg (May 12, 12:20 AM)
Low36 °F (May 16, 2:20 AM)30% (May 22, 2:20 PM)29.45 "Hg (May 13, 5:20 AM)
Average50 °F79%29.90 "Hg
* Reported May 11 7:20 AM — May 26 7:20 AM, Geretsried, Weather by CustomWeather, © 2016

Note: Actual official high and low records may vary slightly from our data, if they occured in-between our weather recording intervals... More about our weather records

Advertising

Geretsried Weather History for the Previous 24 Hours

Scroll right to see more
 ConditionsComfort  
Time TempWeatherWind HumidityBarometerVisibility
7:20 AM
Thu, May 26
54 °FCool.1 mph88%30.04 "HgN/A
6:20 AM52 °FCool.1 mph94%30.01 "HgN/A
5:20 AM52 °FCool.2 mph94%30.01 "HgN/A
4:20 AM54 °FCool.3 mph88%30.01 "HgN/A
3:20 AM52 °FCool.2 mph94%30.01 "HgN/A
2:20 AM52 °FCool.1 mph88%30.01 "HgN/A
1:20 AM52 °FCool.2 mph88%30.01 "HgN/A
12:20 AM52 °FCool.5 mph88%30.01 "HgN/A
11:20 PM
Wed, May 25
54 °FCool.3 mph82%30.01 "HgN/A
10:20 PM54 °FCool.5 mph82%30.01 "HgN/A
9:20 PM54 °FCool.5 mph88%29.98 "HgN/A
8:20 PM59 °FPartly sunny.7 mph72%29.98 "HgN/A
7:20 PM61 °FPartly sunny.7 mph68%29.98 "HgN/A
6:20 PM63 °FPartly sunny.8 mph59%29.95 "HgN/A
5:20 PM64 °FPartly sunny.8 mph52%29.95 "HgN/A
4:20 PM64 °FScattered clouds.9 mph52%29.95 "HgN/A
3:20 PM63 °FPassing clouds.10 mph59%29.95 "HgN/A
2:20 PM63 °FPassing clouds.7 mph59%29.95 "HgN/A
1:20 PM61 °FPassing clouds.2 mph59%29.95 "HgN/A
12:20 PM59 °FPassing clouds.2 mph68%29.95 "HgN/A
11:20 AM54 °FScattered clouds.6 mph77%29.98 "HgN/A
11:02 AM54 °FPartly sunny.5 mph77%29.98 "HgN/A
10:20 AM52 °FPartly sunny.5 mph77%29.98 "HgN/A
9:20 AM50 °FPartly sunny.6 mph82%29.98 "HgN/A
Weather by CustomWeather, © 2016

See weather overviewHow to use our weather pages